Location: ???
(37.5242°N, 71.5078°E)
Time: 02:24:40
(UTC+00:00)

Daily predictions for brighter satellites

Satellite Brightness Start Highest point End
(mag) Time Altitude Azimuth Time Altitude Azimuth Time Altitude Azimuth
Meteor 1-4 Rocket 3.3 00:04:04 48° E 00:04:04 48° E 00:07:17 10° SSE
Cosmos 1603 3.6 00:06:33 57° WNW 00:07:14 62° WSW 00:12:47 10° S
Cosmos 1408 Rocket 3.9 00:03:53 10° S 00:08:17 65° E 00:12:42 10° NNE
Cosmos 2084 4.1 00:10:02 42° SSW 00:10:02 42° SSW 00:13:29 10° SSE
COSMO-SKYMED 1 3.5 00:07:46 10° SSE 00:11:55 47° ENE 00:16:06 10° N
Cosmos 1943 3.1 00:12:14 46° NW 00:13:45 63° WSW 00:19:20 10° S
Cosmos 2074 Rocket 4.4 00:13:43 10° S 00:19:49 65° E 00:25:57 10° NNE
NOSS 3-4 (A) 4.1 00:25:50 32° NW 00:26:04 32° NW 00:31:34 10° NNE
NOSS 3-4 (C) 4.0 00:25:55 32° NW 00:26:11 32° NW 00:31:43 10° NNE
Lacrosse 4 Rocket 1.4 00:25:27 43° NW 00:26:48 75° WSW 00:31:12 10° SSE
NOSS 3-2 (C) 4.4 00:25:07 28° WNW 00:29:15 50° WSW 00:37:31 10° S
USA-17 4.4 00:27:41 15° SW 00:31:01 83° WNW 00:34:20 10° NNE
CENTAUR R/B 3.5 00:27:06 26° NW 00:31:50 49° WSW 00:40:15 10° S
Cosmos 990 Rocket 3.9 00:26:57 10° SSW 00:32:09 67° WNW 00:37:23 10° NNE
CZ-4B R/B 3.0 00:27:42 10° NNE 00:32:12 89° ESE 00:36:33 10° SSW
SKYMED 3 4.5 00:31:33 10° SSE 00:35:53 89° WSW 00:40:15 10° NNW
Cosmos 923 Rocket 3.9 00:32:49 17° NNW 00:36:53 72° WSW 00:42:10 10° S
Cosmos 2184 Rocket 4.0 00:30:44 10° S 00:37:02 86° E 00:43:25 10° N
SAR-Lupe-4 3.4 00:33:46 10° SSE 00:37:20 83° WSW 00:39:41 20° NNW
Cosmos 1862 4.0 00:33:28 10° S 00:37:25 56° E 00:41:24 10° NNE
METEOR-M 4.4 00:33:14 10° N 00:38:15 42° WNW 00:43:14 10° SW
ALOS 4.0 00:34:57 10° N 00:45:11 - SW 00:36:19 17° NNW
Cosmos 1461 3.9 00:39:24 30° W 00:39:50 31° WSW 00:43:45 10° S
USA 234 3.8 00:33:56 10° NE 00:40:23 61° SE 00:46:50 10° SSW
Cosmos 1689 Rocket 2.2 00:37:46 10° SSE 00:40:36 70° ENE 00:42:21 21° N
Genesis I 3.3 00:39:52 36° WSW 00:40:59 48° NW 00:44:44 10° NNE
Meteor 2-17 Rocket 4.4 00:37:02 10° SSW 00:42:56 55° W 00:48:53 10° N
deb Chang Zheng 4 3.9 00:39:08 10° N 00:43:11 39° WNW 00:47:13 10° SW
ATLAS 2AS CENTAUR R/B 3.5 00:40:22 19° WSW 00:45:34 39° NW 00:52:50 10° NNE
Aureole 2 Rocket 2.6 00:44:00 10° S 00:46:27 47° ESE 00:48:55 10° NNE
BREEZE M DEB (TANK) 3.3 00:34:18 10° SW 00:46:54 87° NW 00:50:23 10° NE
YAOGAN 6 4.2 00:44:43 10° NNE 00:47:58 35° E 00:51:11 10° SSE
Cosmos 1844 Rocket 2.6 00:47:13 10° SSW 00:52:47 64° WNW 00:58:25 10° NNE
BREEZE-M (TANK) 4.3 00:39:50 10° SW 00:53:06 58° SE 00:56:40 10° ENE
PSLV R/B 4.2 00:49:35 10° NNE 00:53:24 62° E 00:57:06 10° S
SAR-Lupe-1 4.2 00:50:54 10° S 00:54:21 50° W 00:57:11 15° NNW
Cosmos 158 Rocket 4.1 00:50:55 16° NW 00:54:37 47° WSW 00:59:24 10° S
Cosmos 405 Rocket 2.6 00:51:09 10° S 00:54:49 85° E 00:58:33 10° N
CZ-4B R/B 3.2 00:52:34 10° SW 00:53:38 16° SW 00:53:38 16° SW
COSMOS 2455 3.2 00:50:21 10° SSW 00:56:19 69° ESE 01:02:20 10° NNE
Cosmos 2228 Rocket 3.5 00:55:12 10° N 00:59:36 64° E 01:03:56 10° SSE
SKYMED 2 3.8 00:55:49 10° S 00:59:58 46° W 01:04:09 10° NNW
ASTRO F (AKARI) 4.1 00:57:08 10° N 01:00:14 74° WNW 01:03:23 10° SSW
PSLV R/B 3.9 00:56:54 10° S 01:01:01 62° W 01:05:06 10° NNW
Cosmos 1515 Rocket 3.7 00:56:50 10° NNW 01:01:11 53° W 01:05:31 10° S
Cosmos 1812 2.9 01:00:28 10° N 01:04:18 74° E 01:08:07 10° SSE
Cosmos 1151 Rocket 4.2 01:03:10 19° WNW 01:04:37 22° W 01:07:56 10° SW
Cosmos 1680 Rocket 3.7 00:59:42 10° NNW 01:04:52 52° WSW 01:09:59 10° S
Cosmos 1844 3.6 01:00:33 10° SW 01:06:00 62° WNW 01:11:33 10° NNE
Atlas Centaur 2 3.1 01:01:28 10° WSW 01:07:25 41° S 01:12:12 10° ESE
Cosmos 1782 3.6 01:05:14 11° NNW 01:08:38 30° W 01:12:11 10° SSW
ERS-2 3.7 01:07:24 10° SW 01:09:46 16° W 01:10:08 16° W
GPS 2-04 Rocket1 2.9 01:08:05 16° W 01:11:07 61° S 01:14:51 10° ESE
NOAA 6 4.2 01:08:05 10° NNE 01:13:13 79° ESE 01:18:19 10° S
CZ-4B DEB 4.3 01:08:29 10° NNE 01:13:59 84° ESE 01:19:26 10° SSW
Cosmos 372 Rocket 3.9 01:10:28 10° SSW 01:15:33 88° WNW 01:20:41 10° NNE
Lacrosse 5 3.4 01:13:33 14° WNW 01:15:50 18° NNW 01:19:18 10° NNE
Meteor 2-6 Rocket 4.1 01:10:29 10° NNW 01:15:51 68° W 01:21:16 10° S
RESURS DK-1 3.6 01:16:01 10° WSW 01:19:13 21° WNW 01:22:25 10° N
PAYLOAD B 4.4 01:14:19 10° NNE 01:19:50 77° ESE 01:25:19 10° S
Cosmos 1500 Rocket 4.0 01:16:05 10° SSW 01:20:04 36° WNW 01:24:05 10° N
BREEZE-M DEB 3.8 01:12:52 10° NW 01:21:55 57° NNE 01:24:52 10° ESE
Gbstr 26 Del rocket 2.9 01:18:28 11° NW 01:22:01 71° NE 01:26:08 10° SE
Nadezhda 3 Rocket 4.0 01:17:00 10° N 01:23:19 80° W 01:29:30 10° S
ATLAS 5 CENTAUR R/B 2.3 01:20:06 10° SSW 01:23:56 52° ESE 01:28:05 10° NE
ATLAS CENTAUR R/B 1.2 01:20:15 10° NNW 01:24:04 89° WSW 01:28:06 10° SSE
OAO 2 Rocket 3.7 01:19:11 10° W 01:24:06 60° S 01:29:10 10° ESE
CZ-2C R/B 3.7 01:23:52 10° SE 01:29:09 49° ENE 01:34:21 10° N
Okean O Rocket 2.2 01:26:30 10° NNE 01:30:56 65° ESE 01:35:20 10° S
SMAP 3.3 01:26:59 10° NNE 01:31:39 77° ESE 01:36:18 10° S
H-2A R/B 3.5 01:28:13 10° N 01:31:40 30° WNW 01:35:03 10° SW
CZ-2C R/B 3.6 01:30:15 10° S 01:32:02 14° SSE 01:33:49 10° ESE
Cosmos 1437 Rocket 2.6 01:29:41 10° N 01:33:29 85° W 01:37:14 10° S
Envisat 3.2 01:35:57 10° N 01:40:52 50° WNW 01:45:45 10° SSW
Sich 1 3.1 01:36:49 10° SSW 01:41:11 62° W 01:45:35 10° N
Meteor 2-12 Rocket 4.5 01:35:43 10° S 01:41:50 77° W 01:48:02 10° N
